Time,TemperatureF,DewpointF,PressureIn,WindDirection,WindDirectionDegrees,WindSpeedMPH,WindSpeedGustMPH,Humidity,HourlyPrecipIn,Conditions,Clouds,dailyrainin,SoftwareType,DateUTC
2013-06-10 00:10:00,71.2,61.0,29.87,WSW,243,3.0,-999.0,70,-99.99,,,0.00,weatherlink.com 1.10,2013-06-10 05:10:00,
2013-06-10 00:25:00,71.0,61.0,29.88,WSW,247,0.0,-999.0,70,-99.99,,,0.00,weatherlink.com 1.10,2013-06-10 05:25:00,
2013-06-10 00:40:00,70.8,60.0,29.88,WSW,245,0.0,-999.0,69,-99.99,,,0.00,weatherlink.com 1.10,2013-06-10 05:40:00,
2013-06-10 00:55:00,70.8,60.0,29.88,WSW,245,0.0,-999.0,68,-99.99,,,0.00,weatherlink.com 1.10,2013-06-10 05:55:00,
2013-06-10 01:10:00,70.7,60.0,29.88,WSW,244,0.0,-999.0,69,-99.99,,,0.00,weatherlink.com 1.10,2013-06-10 06:10:00,
2013-06-10 01:25:00,70.1,60.0,29.87,SW,236,0.0,-999.0,70,-99.99,,,0.00,weatherlink.com 1.10,2013-06-10 06:25:00,
2013-06-10 01:40:00,69.8,60.0,29.86,WSW,239,1.0,-999.0,71,-99.99,,,0.00,weatherlink.com 1.10,2013-06-10 06:40:00,
2013-06-10 01:55:00,69.2,60.0,29.86,WSW,240,0.0,-999.0,72,-99.99,,,0.00,weatherlink.com 1.10,2013-06-10 06:55:00,
2013-06-10 02:10:00,69.5,60.0,29.86,WSW,251,0.0,-999.0,71,-99.99,,,0.00,weatherlink.com 1.10,2013-06-10 07:10:00,
2013-06-10 02:25:00,69.5,59.0,29.86,West,259,0.0,-999.0,70,-99.99,,,0.00,weatherlink.com 1.10,2013-06-10 07:25:00,
2013-06-10 02:40:00,69.7,60.0,29.86,WSW,242,0.0,-999.0,70,-99.99,,,0.00,weatherlink.com 1.10,2013-06-10 07:40:00,
2013-06-10 02:55:00,69.2,59.0,29.86,WSW,242,0.0,-999.0,70,-99.99,,,0.00,weatherlink.com 1.10,2013-06-10 07:55:00,
2013-06-10 03:10:00,68.9,59.0,29.86,WSW,240,2.0,-999.0,70,-99.99,,,0.00,weatherlink.com 1.10,2013-06-10 08:10:00,
2013-06-10 03:25:00,68.9,58.0,29.86,West,264,0.0,-999.0,69,-99.99,,,0.00,weatherlink.com 1.10,2013-06-10 08:25:00,
2013-06-10 03:40:00,68.9,58.0,29.86,WSW,257,0.0,-999.0,68,-99.99,,,0.00,weatherlink.com 1.10,2013-06-10 08:40:00,
2013-06-10 03:55:00,68.8,57.0,29.86,West,261,0.0,-999.0,67,-99.99,,,0.00,weatherlink.com 1.10,2013-06-10 08:55:00,
2013-06-10 04:10:00,69.1,56.0,29.86,West,261,0.0,-999.0,63,-99.99,,,0.00,weatherlink.com 1.10,2013-06-10 09:10:00,
2013-06-10 04:25:00,70.0,57.0,29.87,WSW,246,0.0,-999.0,64,-99.99,,,0.00,weatherlink.com 1.10,2013-06-10 09:25:00,
2013-06-10 04:40:00,70.2,59.0,29.87,WSW,253,3.0,-999.0,67,-99.99,,,0.00,weatherlink.com 1.10,2013-06-10 09:40:00,
2013-06-10 04:55:00,70.3,59.0,29.87,WSW,254,1.0,-999.0,68,-99.99,,,0.00,weatherlink.com 1.10,2013-06-10 09:55:00,
2013-06-10 05:10:00,70.6,60.0,29.87,WSW,252,0.0,-999.0,68,-99.99,,,0.00,weatherlink.com 1.10,2013-06-10 10:10:00,
2013-06-10 05:25:00,70.4,59.0,29.88,WSW,247,0.0,-999.0,68,-99.99,,,0.00,weatherlink.com 1.10,2013-06-10 10:25:00,
2013-06-10 05:40:00,70.3,59.0,29.88,WSW,247,0.0,-999.0,68,-99.99,,,0.00,weatherlink.com 1.10,2013-06-10 10:40:00,
2013-06-10 05:55:00,70.4,59.0,29.89,WSW,247,0.0,-999.0,68,-99.99,,,0.00,weatherlink.com 1.10,2013-06-10 10:55:00,
2013-06-10 06:10:00,69.6,59.0,29.90,WSW,244,0.0,-999.0,70,-99.99,,,0.00,weatherlink.com 1.10,2013-06-10 11:10:00,
2013-06-10 06:25:00,69.7,59.0,29.89,WSW,245,0.0,-999.0,68,-99.99,,,0.00,weatherlink.com 1.10,2013-06-10 11:25:00,
2013-06-10 06:40:00,71.2,59.0,29.89,West,259,0.0,-999.0,66,-99.99,,,0.00,weatherlink.com 1.10,2013-06-10 11:40:00,
2013-06-10 06:55:00,71.3,60.0,29.89,West,259,0.0,-999.0,67,-99.99,,,0.00,weatherlink.com 1.10,2013-06-10 11:55:00,
2013-06-10 07:10:00,71.7,61.0,29.89,West,271,0.0,-999.0,69,-99.99,,,0.00,weatherlink.com 1.10,2013-06-10 12:10:00,
2013-06-10 07:25:00,71.4,62.0,29.89,WSW,240,0.0,-999.0,71,-99.99,,,0.00,weatherlink.com 1.10,2013-06-10 12:25:00,
2013-06-10 07:40:00,71.5,62.0,29.89,SW,235,0.0,-999.0,72,-99.99,,,0.00,weatherlink.com 1.10,2013-06-10 12:40:00,
2013-06-10 07:55:00,71.0,62.0,29.89,WSW,240,0.0,-999.0,72,-99.99,,,0.00,weatherlink.com 1.10,2013-06-10 12:55:00,
2013-06-10 08:10:00,71.2,62.0,29.90,WSW,239,0.0,-999.0,73,-99.99,,,0.00,weatherlink.com 1.10,2013-06-10 13:10:00,
2013-06-10 08:25:00,72.5,63.0,29.91,WSW,242,0.0,-999.0,72,-99.99,,,0.00,weatherlink.com 1.10,2013-06-10 13:25:00,
2013-06-10 08:40:00,73.6,64.0,29.91,WSW,243,0.0,-999.0,71,-99.99,,,0.00,weatherlink.com 1.10,2013-06-10 13:40:00,
2013-06-10 08:55:00,75.4,65.0,29.91,WSW,243,0.0,-999.0,70,-99.99,,,0.00,weatherlink.com 1.10,2013-06-10 13:55:00,
2013-06-10 09:10:00,76.8,65.0,29.91,WSW,243,0.0,-999.0,66,-99.99,,,0.00,weatherlink.com 1.10,2013-06-10 14:10:00,
2013-06-10 09:25:00,77.7,65.0,29.92,WSW,243,0.0,-999.0,66,-99.99,,,0.00,weatherlink.com 1.10,2013-06-10 14:25:00,
2013-06-10 09:40:00,78.6,68.0,29.92,WSW,251,0.0,-999.0,70,-99.99,,,0.00,weatherlink.com 1.10,2013-06-10 14:40:00,
2013-06-10 09:55:00,78.9,66.0,29.91,WSW,246,0.0,-999.0,65,-99.99,,,0.00,weatherlink.com 1.10,2013-06-10 14:55:00,
2013-06-10 10:10:00,79.2,68.0,29.91,WSW,242,0.0,-999.0,68,-99.99,,,0.00,weatherlink.com 1.10,2013-06-10 15:10:00,
2013-06-10 10:25:00,79.6,69.0,29.91,WSW,242,0.0,-999.0,69,-99.99,,,0.00,weatherlink.com 1.10,2013-06-10 15:25:00,
2013-06-10 10:40:00,80.4,68.0,29.91,WSW,242,0.0,-999.0,67,-99.99,,,0.00,weatherlink.com 1.10,2013-06-10 15:40:00,
2013-06-10 10:55:00,80.6,69.0,29.91,WSW,246,0.0,-999.0,68,-99.99,,,0.00,weatherlink.com 1.10,2013-06-10 15:55:00,
2013-06-10 11:10:00,81.6,70.0,29.92,WSW,241,0.0,-999.0,67,-99.99,,,0.00,weatherlink.com 1.10,2013-06-10 16:10:00,
2013-06-10 11:25:00,82.5,70.0,29.91,SW,227,0.0,-999.0,65,-99.99,,,0.00,weatherlink.com 1.10,2013-06-10 16:25:00,
2013-06-10 11:40:00,82.6,69.0,29.91,SW,217,1.0,-999.0,64,-99.99,,,0.00,weatherlink.com 1.10,2013-06-10 16:40:00,
2013-06-10 11:55:00,83.2,70.0,29.91,SW,217,0.0,-999.0,64,-99.99,,,0.00,weatherlink.com 1.10,2013-06-10 16:55:00,
2013-06-10 12:10:00,83.9,71.0,29.92,SW,229,0.0,-999.0,65,-99.99,,,0.00,weatherlink.com 1.10,2013-06-10 17:10:00,
2013-06-10 12:25:00,84.4,70.0,29.92,WSW,248,0.0,-999.0,63,-99.99,,,0.00,weatherlink.com 1.10,2013-06-10 17:25:00,
2013-06-10 12:40:00,84.8,70.0,29.92,West,260,0.0,-999.0,61,-99.99,,,0.00,weatherlink.com 1.10,2013-06-10 17:40:00,
2013-06-10 12:55:00,85.5,69.0,29.91,West,265,1.0,-999.0,58,-99.99,,,0.00,weatherlink.com 1.10,2013-06-10 17:55:00,
2013-06-10 13:10:00,85.4,68.0,29.91,SW,227,0.0,-999.0,56,-99.99,,,0.00,weatherlink.com 1.10,2013-06-10 18:10:00,
2013-06-10 13:25:00,85.5,66.0,29.90,WSW,246,0.0,-999.0,53,-99.99,,,0.00,weatherlink.com 1.10,2013-06-10 18:25:00,
2013-06-10 13:40:00,86.1,69.0,29.90,SW,230,0.0,-999.0,57,-99.99,,,0.00,weatherlink.com 1.10,2013-06-10 18:40:00,
2013-06-10 13:55:00,86.6,68.0,29.90,SW,232,1.0,-999.0,54,-99.99,,,0.00,weatherlink.com 1.10,2013-06-10 18:55:00,
2013-06-10 14:10:00,86.9,68.0,29.90,SSW,210,0.0,-999.0,53,-99.99,,,0.00,weatherlink.com 1.10,2013-06-10 19:10:00,
2013-06-10 14:25:00,87.2,69.0,29.90,WSW,255,3.0,-999.0,55,-99.99,,,0.00,weatherlink.com 1.10,2013-06-10 19:25:00,
2013-06-10 14:40:00,87.1,67.0,29.89,South,188,2.0,-999.0,51,-99.99,,,0.00,weatherlink.com 1.10,2013-06-10 19:40:00,
2013-06-10 14:55:00,86.7,68.0,29.89,West,281,2.0,-999.0,53,-99.99,,,0.00,weatherlink.com 1.10,2013-06-10 19:55:00,
2013-06-10 15:10:00,86.7,65.0,29.88,WSW,244,0.0,-999.0,49,-99.99,,,0.00,weatherlink.com 1.10,2013-06-10 20:10:00,
2013-06-10 15:25:00,86.4,67.0,29.88,NNW,347,2.0,-999.0,52,-99.99,,,0.00,weatherlink.com 1.10,2013-06-10 20:25:00,
2013-06-10 15:40:00,86.3,68.0,29.88,WSW,240,0.0,-999.0,54,-99.99,,,0.00,weatherlink.com 1.10,2013-06-10 20:40:00,
2013-06-10 15:55:00,86.4,67.0,29.88,WSW,255,0.0,-999.0,52,-99.99,,,0.00,weatherlink.com 1.10,2013-06-10 20:55:00,
2013-06-10 16:10:00,86.4,66.0,29.88,NNE,28,2.0,-999.0,51,-99.99,,,0.00,weatherlink.com 1.10,2013-06-10 21:10:00,
2013-06-10 16:25:00,86.0,65.0,29.87,SW,234,2.0,-999.0,50,-99.99,,,0.00,weatherlink.com 1.10,2013-06-10 21:25:00,
2013-06-10 16:40:00,86.4,66.0,29.87,West,267,0.0,-999.0,51,-99.99,,,0.00,weatherlink.com 1.10,2013-06-10 21:40:00,
2013-06-10 16:55:00,86.3,65.0,29.87,West,280,0.0,-999.0,49,-99.99,,,0.00,weatherlink.com 1.10,2013-06-10 21:55:00,
2013-06-10 17:10:00,86.3,66.0,29.87,WSW,253,0.0,-999.0,51,-99.99,,,0.00,weatherlink.com 1.10,2013-06-10 22:10:00,
2013-06-10 17:25:00,86.3,66.0,29.87,WSW,253,0.0,-999.0,50,-99.99,,,0.00,weatherlink.com 1.10,2013-06-10 22:25:00,
2013-06-10 17:40:00,86.0,65.0,29.87,SSW,192,0.0,-999.0,49,-99.99,,,0.00,weatherlink.com 1.10,2013-06-10 22:40:00,
2013-06-10 17:55:00,85.5,65.0,29.86,WSW,240,0.0,-999.0,51,-99.99,,,0.00,weatherlink.com 1.10,2013-06-10 22:55:00,
2013-06-10 18:10:00,85.0,65.0,29.86,SW,229,0.0,-999.0,51,-99.99,,,0.00,weatherlink.com 1.10,2013-06-10 23:10:00,
2013-06-10 18:25:00,85.2,66.0,29.86,WSW,237,0.0,-999.0,53,-99.99,,,0.00,weatherlink.com 1.10,2013-06-10 23:25:00,
2013-06-10 18:40:00,85.7,68.0,29.86,WSW,240,0.0,-999.0,55,-99.99,,,0.00,weatherlink.com 1.10,2013-06-10 23:40:00,
2013-06-10 18:55:00,85.0,68.0,29.87,WSW,240,0.0,-999.0,57,-99.99,,,0.00,weatherlink.com 1.10,2013-06-10 23:55:00,
2013-06-10 19:10:00,84.1,69.0,29.87,WSW,240,0.0,-999.0,60,-99.99,,,0.00,weatherlink.com 1.10,2013-06-11 00:10:00,
2013-06-10 19:25:00,83.3,69.0,29.87,WSW,242,0.0,-999.0,62,-99.99,,,0.00,weatherlink.com 1.10,2013-06-11 00:25:00,
2013-06-10 19:40:00,82.5,68.0,29.87,WSW,258,0.0,-999.0,62,-99.99,,,0.00,weatherlink.com 1.10,2013-06-11 00:40:00,
2013-06-10 19:55:00,81.7,67.0,29.87,WSW,258,0.0,-999.0,62,-99.99,,,0.00,weatherlink.com 1.10,2013-06-11 00:55:00,
2013-06-10 20:10:00,81.1,67.0,29.88,WSW,256,0.0,-999.0,63,-99.99,,,0.00,weatherlink.com 1.10,2013-06-11 01:10:00,
2013-06-10 20:25:00,80.3,67.0,29.87,West,260,0.0,-999.0,63,-99.99,,,0.00,weatherlink.com 1.10,2013-06-11 01:25:00,
2013-06-10 20:40:00,79.4,66.0,29.88,West,261,0.0,-999.0,64,-99.99,,,0.00,weatherlink.com 1.10,2013-06-11 01:40:00,
2013-06-10 20:55:00,79.2,66.0,29.88,WSW,246,0.0,-999.0,64,-99.99,,,0.00,weatherlink.com 1.10,2013-06-11 01:55:00,
2013-06-10 21:10:00,79.2,66.0,29.88,WSW,250,0.0,-999.0,65,-99.99,,,0.00,weatherlink.com 1.10,2013-06-11 02:10:00,
2013-06-10 21:25:00,79.1,66.0,29.89,WSW,246,1.0,-999.0,65,-99.99,,,0.00,weatherlink.com 1.10,2013-06-11 02:25:00,
2013-06-10 21:40:00,78.7,66.0,29.89,WSW,247,1.0,-999.0,66,-99.99,,,0.00,weatherlink.com 1.10,2013-06-11 02:40:00,
2013-06-10 21:55:00,78.3,66.0,29.89,WSW,252,1.0,-999.0,67,-99.99,,,0.00,weatherlink.com 1.10,2013-06-11 02:55:00,
2013-06-10 22:10:00,77.8,66.0,29.89,SW,232,0.0,-999.0,68,-99.99,,,0.00,weatherlink.com 1.10,2013-06-11 03:10:00,
2013-06-10 22:25:00,77.8,66.0,29.90,SW,227,0.0,-999.0,68,-99.99,,,0.00,weatherlink.com 1.10,2013-06-11 03:25:00,
2013-06-10 22:40:00,77.6,67.0,29.90,SW,233,0.0,-999.0,69,-99.99,,,0.00,weatherlink.com 1.10,2013-06-11 03:40:00,
2013-06-10 22:55:00,77.5,67.0,29.90,WSW,241,3.0,-999.0,69,-99.99,,,0.00,weatherlink.com 1.10,2013-06-11 03:55:00,
2013-06-10 23:10:00,77.4,67.0,29.89,WSW,252,5.0,-999.0,70,-99.99,,,0.00,weatherlink.com 1.10,2013-06-11 04:10:00,
2013-06-10 23:25:00,77.0,67.0,29.89,SW,227,0.0,-999.0,71,-99.99,,,0.00,weatherlink.com 1.10,2013-06-11 04:25:00,
2013-06-10 23:40:00,76.9,67.0,29.89,SW,234,0.0,-999.0,71,-99.99,,,0.00,weatherlink.com 1.10,2013-06-11 04:40:00,
2013-06-10 23:55:00,76.7,67.0,29.89,WSW,242,0.0,-999.0,71,-99.99,,,0.00,weatherlink.com 1.10,2013-06-11 04:55:00,